This is the latest recevied weather packets stored in our database for station/object G1YBJ-13. If no packets are shown the sender has not sent any weather packets the latest 10 day(s).
| Time | Temp. | Humidity | Pressure | Rain* | Wind** | Luminosity | Snow |
|---|---|---|---|---|---|---|---|
| 1777416151 | 6.67° C | 78% | 1027.6 hPa | - | - | - | - |
| 1777415249 | 7.22° C | 78% | 1027.7 hPa | - | - | - | - |
| 1777414347 | 7.22° C | 78% | 1027.6 hPa | - | - | - | - |
| 1777413446 | 7.22° C | 77% | 1027.6 hPa | - | - | - | - |
| 1777412544 | 7.22° C | 77% | 1027.6 hPa | - | - | - | - |
| 1777411643 | 7.78° C | 78% | 1027.5 hPa | - | - | - | - |
| 1777410742 | 7.78° C | 77% | 1027.5 hPa | - | - | - | - |
| 1777409842 | 7.78° C | 76% | 1027.4 hPa | - | - | - | - |
| 1777408940 | 8.33° C | 75% | 1027.5 hPa | - | - | - | - |
| 1777408038 | 8.33° C | 74% | 1027.3 hPa | - | - | - | - |
| 1777407137 | 8.89° C | 72% | 1027.2 hPa | - | - | - | - |
| 1777406236 | 8.89° C | 70% | 1027.1 hPa | - | - | - | - |
| 1777405335 | 9.44° C | 68% | 1027 hPa | - | - | - | - |
| 1777404433 | 9.44° C | 68% | 1026.9 hPa | - | - | - | - |
| 1777403533 | 10° C | 68% | 1026.8 hPa | - | - | - | - |
| 1777402632 | 10.56° C | 67% | 1026.8 hPa | - | - | - | - |
| 1777401730 | 10.56° C | 67% | 1026.6 hPa | - | - | - | - |
| 1777400829 | 11.11° C | 66% | 1026.5 hPa | - | - | - | - |
| 1777399928 | 11.67° C | 66% | 1026.5 hPa | - | - | - | - |
| 1777399026 | 11.67° C | 67% | 1026.3 hPa | - | - | - | - |
| 1777398124 | 11.67° C | 68% | 1026.3 hPa | - | - | - | - |
| 1777397223 | 12.22° C | 67% | 1026.2 hPa | - | - | - | - |
| 1777396322 | 13.89° C | 64% | 1026.2 hPa | - | - | - | - |
| 1777395420 | 15° C | 62% | 1026.2 hPa | - | - | - | - |
| 1777394519 | 15° C | 62% | 1026.1 hPa | - | - | - | - |
* Rain since midnight (hover to see other rain measurements)
** Current wind speed in m/s (hover to see current wind gust speed)